Temp
13 13 13 13 13 13 13 13 13 13 13 13 13 13 13 14 14 14 14 15 15 16 16 16 16 16 16 16 16 16 16 16 16 16 16 16 16 16 17 17 17 17 17 17 17 17 17 17 17 16 16 16 16 16 16 16 16 16 16 16 16 16 16 16 17 17 17 17 17
13 13 13 13 13 13 13 13 13 13 13 13 13 13 13 13 14 14 14 14 15 15 16 16 16 16 16 16 16 16 16 16 16 16 16 16 16 16 16 17 17 17 17 17 17 16 16 16 16 16 16 16 16 16 16 17 17 16 16 16 16 16 16 16 16 17 17 17 18
14 14 13 13 13 13 13 13 13 13 13 13 13 13 13 13 14 14 14 15 15 15 16 16 16 16 16 15 15 16 16 16 16 16 16 16 16 16 16 16 17 17 17 17 17 16 16 16 16 16 17 17 16 16 17 17 17 17 17 17 17 17 17 17 17 17 17 17 18
14 14 14 14 14 13 13 13 13 13 13 13 13 13 13 14 14 14 14 15 15 16 16 16 16 16 16 16 16 15 16 16 16 16 16 16 16 16 16 16 16 17 17 17 17 17 16 16 16 17 17 17 17 17 17 17 17 17 17 17 17 17 17 17 17 17 17 17 17
15 15 15 14 14 14 14 14 14 14 14 14 14 14 14 14 14 15 15 15 16 16 16 16 16 16 16 16 16 16 16 16 16 16 16 16 16 16 16 16 17 17 17 17 17 17 17 16 17 17 17 17 17 17 17 17 17 17 17 17 17 17 17 17 17 17 17 17 17
16 16 16 15 15 15 15 15 15 15 15 15 15 15 15 15 15 15 15 16 16 16 16 16 16 16 16 16 16 16 16 16 16 16 16 16 16 16 16 17 17 17 17 17 17 17 17 17 17 17 17 17 17 17 17 17 17 17 17 17 17 17 17 17 17 17 17 17 17
16 16 16 16 15 15 15 15 15 15 15 15 15 15 15 15 15 15 16 16 16 16 16 16 16 16 16 16 17 17 16 16 16 16 16 16 16 16 17 17 17 17 17 17 17 17 17 17 17 17 17 17 17 17 17 17 17 17 17 17 17 17 17 17 17 17 17 17 17
16 16 16 16 16 16 16 16 15 15 15 15 15 15 15 16 16 16 16 16 16 16 16 16 16 16 16 17 17 17 17 16 16 16 16 16 16 17 17 17 17 17 17 17 18 17 17 17 17 17 17 17 17 17 17 18 17 17 17 17 17 17 17 17 17 17 17 17 17
16 16 16 16 16 16 16 16 16 15 15 16 16 16 15 16 16 16 16 16 16 16 16 16 16 17 17 17 17 17 17 17 17 16 16 16 17 17 17 17 17 18 18 18 18 18 18 17 17 17 17 17 17 17 18 18 18 18 17 17 17 17 17 17 17 18 17 17 17
17 16 16 16 16 16 16 16 16 15 15 16 16 16 15 16 16 16 16 16 16 16 17 17 17 17 17 17 18 18 17 17 17 17 17 17 17 17 17 17 18 18 18 18 18 18 18 18 17 17 17 17 18 18 18 18 18 18 18 18 17 17 18 17 17 18 17 17 17
17 16 16 16 16 16 16 16 16 15 15 16 16 16 16 16 16 16 16 16 17 17 17 18 18 18 18 18 18 18 18 18 18 18 18 18 18 18 18 18 18 18 18 18 18 18 18 18 18 18 18 18 18 18 18 18 18 18 18 18 18 18 18 18 18 18 18 17 17
17 16 16 16 16 16 16 16 15 15 15 16 16 16 16 16 16 16 17 17 17 18 18 18 18 18 18 18 18 18 18 18 18 18 18 18 18 18 18 18 18 18 18 19 19 18 18 18 18 18 18 18 18 18 18 18 18 18 18 18 18 18 18 18 18 18 18 18 17
18 17 16 16 16 16 16 16 16 16 16 16 16 16 16 16 17 17 17 18 18 19 19 19 19 19 19 19 19 19 19 19 19 19 19 19 19 19 19 19 19 19 19 19 19 19 19 19 18 18 18 18 18 18 18 18 18 18 18 18 18 18 18 18 18 18 18 18 18
19 18 17 16 16 16 16 16 16 16 16 16 17 17 17 17 17 18 18 18 19 19 19 19 19 19 19 19 19 19 19 19 19 19 19 19 19 19 19 19 19 19 19 19 19 19 19 19 19 19 19 19 19 18 18 18 18 18 18 18 18 18 18 18 18 18 18 18 18
19 19 18 17 17 16 17 17 17 17 17 17 17 17 18 18 18 18 19 19 19 19 20 20 20 20 20 20 20 20 20 20 20 20 20 20 20 19 19 19 19 19 19 19 19 19 19 19 19 19 19 19 19 19 18 18 18 18 18 18 18 18 18 18 18 18 18 18 18
19 19 19 18 18 17 17 18 18 18 18 18 18 18 18 18 19 19 19 19 20 20 20 20 20 20 20 20 20 20 20 20 20 20 20 20 20 20 20 19 19 19 19 19 19 19 19 19 19 19 19 19 19 19 19 19 18 18 18 18 18 18 18 18 18 18 17 17 17
19 20 19 19 19 18 18 18 18 19 18 18 19 19 19 19 19 19 19 19 20 20 20 20 20 20 20 20 20 20 20 20 20 20 20 20 20 20 20 20 20 20 19 19 19 19 19 19 19 19 19 19 19 19 19 19 18 18 18 18 17 17 17 17 17 17 17 17 16
20 20 20 20 20 19 19 19 19 19 19 19 20 20 20 20 20 20 19 19 20 20 20 20 20 20 20 20 20 20 20 20 20 20 20 20 20 20 20 20 20 20 20 20 20 20 19 19 19 19 19 19 19 19 19 19 18 18 18 17 17 17 17 16 16 16 16 16 16
20 20 20 20 20 20 20 20 20 20 20 20 20 20 20 20 20 20 20 20 19 20 20 20 20 20 20 20 20 20 20 20 20 20 20 20 20 20 20 20 20 20 20 20 20 20 20 20 19 19 19 19 18 18 18 18 18 17 17 17 16 16 16 16 15 15 15 15 15
21 21 21 21 21 20 20 20 20 20 20 20 20 20 20 20 20 20 20 20 20 20 20 20 20 20 20 20 20 20 19 20 20 20 20 20 20 20 20 20 20 20 20 20 20 20 20 20 19 19 19 18 18 18 17 17 17 17 16 16 16 16 15 15 15 15 15 14 14
21 21 21 21 21 21 21 20 20 20 20 20 20 20 20 20 20 20 20 20 20 20 20 20 20 20 20 20 20 19 19 19 19 20 20 20 20 20 20 20 20 20 20 20 20 20 20 19 19 19 19 18 17 17 17 16 16 16 16 16 15 15 15 15 15 14 14 14 14
21 21 21 21 21 21 21 21 21 20 20 20 20 20 20 20 20 20 20 20 20 20 20 20 20 20 20 19 19 19 19 19 19 19 20 20 20 20 20 20 20 20 20 20 20 20 19 19 19 19 18 18 17 16 16 16 16 16 15 15 15 15 15 15 14 14 14 14 14
21 21 21 21 21 21 21 21 21 21 20 20 20 20 20 20 20 20 20 20 20 20 20 20 20 19 19 19 19 19 19 19 19 19 19 19 20 20 20 20 20 20 20 20 20 19 19 19 19 18 18 17 17 16 16 16 15 15 15 15 15 15 14 14 14 14 14 14 13
21 21 21 21 21 21 21 21 21 21 21 21 20 20 20 20 20 20 20 20 20 20 20 19 19 19 19 19 19 19 19 19 19 19 19 19 19 19 19 19 19 19 19 19 19 19 19 19 18 18 17 17 16 16 15 15 15 15 14 14 14 14 14 14 14 13 13 13 13
21 21 21 21 21 21 21 21 21 21 21 21 21 21 20 20 20 20 20 20 20 20 20 19 19 19 19 18 18 18 18 18 18 18 19 19 19 19 19 19 19 19 19 19 19 19 19 18 18 17 17 16 16 15 15 15 14 14 14 14 14 14 13 13 12 12 12 12 12
20 20 21 21 21 21 21 21 21 21 21 21 21 21 21 21 21 20 20 20 20 20 20 19 19 19 18 18 18 18 18 18 18 18 18 18 18 18 18 18 18 18 18 18 18 18 18 18 17 17 16 16 15 15 15 14 14 14 14 14 13 13 12 12 12 11 11 11 10
20 20 20 21 21 21 21 21 21 21 21 21 21 21 21 21 21 21 21 20 20 20 20 19 19 18 18 18 17 17 17 17 17 18 18 18 18 18 18 17 17 18 18 18 18 18 18 17 17 17 16 15 15 14 14 14 14 14 13 13 12 12 11 11 11 11 10 10 10
20 20 20 20 21 21 21 21 21 21 21 21 21 21 21 21 21 21 21 21 20 20 20 19 19 18 18 18 17 17 17 17 17 17 17 17 17 17 17 17 17 17 17 17 17 17 17 17 17 16 16 15 15 14 14 14 13 13 12 12 11 11 11 10 10 10 10 10 10
21 20 20 20 20 21 21 21 21 21 21 21 21 21 21 21 21 21 21 21 20 20 20 19 19 18 18 18 17 17 17 17 17 17 17 16 17 16 16 16 16 16 16 16 16 16 16 16 16 16 15 15 14 14 13 13 12 12 11 11 10 10 10 10 10 9 9 9 9
21 20 20 20 20 20 21 21 21 21 21 21 21 21 21 21 21 21 21 21 21 20 20 19 19 18 18 18 17 17 17 17 16 16 16 16 16 16 16 16 16 16 16 16 16 16 16 16 15 15 15 15 14 13 12 12 11 11 11 10 10 10 10 9 9 9 9 9 9
22 21 20 20 20 20 20 21 21 21 21 21 21 21 21 21 21 21 21 21 21 20 20 20 19 18 18 18 17 17 17 17 17 16 16 16 16 16 16 16 16 15 15 15 15 15 15 15 15 15 15 14 14 13 12 12 11 11 11 10 10 10 9 9 9 9 9 9 9
22 22 21 20 20 20 20 20 21 21 21 22 22 22 21 21 21 21 21 21 21 21 20 20 19 19 18 18 18 18 17 17 17 17 17 16 16 16 16 16 15 15 15 15 15 15 15 15 14 14 14 14 14 13 12 12 11 11 10 10 10 9 9 9 9 9 9 9 9
23 22 22 21 20 20 20 20 20 21 21 21 22 22 22 22 21 21 21 21 21 21 21 20 20 19 19 18 18 18 18 18 18 18 17 17 16 16 16 16 15 15 15 14 14 14 14 14 14 14 14 14 13 13 12 11 11 10 10 10 10 9 9 9 9 9 9 9 9
23 23 23 22 21 21 20 20 20 20 21 21 21 22 22 22 22 22 21 21 21 21 21 20 20 19 19 19 19 18 18 18 18 18 18 17 17 16 16 16 15 15 15 14 14 14 14 14 14 14 14 14 13 12 11 11 10 10 10 10 9 9 9 9 9 9 9 9 9
23 23 23 23 22 22 21 20 20 20 20 21 21 21 22 22 22 22 22 21 21 21 21 20 20 20 19 19 19 19 19 18 18 18 18 17 17 16 16 16 15 15 14 14 14 14 14 14 14 14 14 13 12 11 11 10 10 10 10 10 10 10 10 10 10 10 10 10 10
24 24 23 23 23 22 22 21 20 20 20 20 21 21 21 21 22 22 22 21 21 21 21 20 20 20 20 19 19 19 19 19 18 18 18 17 17 17 16 16 16 15 14 14 14 13 13 13 13 13 13 12 12 11 10 10 10 10 10 10 10 10 10 10 10 10 10 10 10
24 24 24 23 23 23 23 22 21 20 20 20 20 21 21 21 21 21 21 21 21 21 21 21 20 20 20 20 20 19 19 19 18 18 17 17 16 16 16 16 16 15 14 13 13 13 13 13 13 13 12 12 11 11 10 10 9 9 9 10 10 10 10 10 9 9 9 9 9
24 24 24 24 23 23 23 23 22 21 20 20 20 20 20 21 21 21 21 21 21 21 21 21 21 20 20 20 20 20 19 19 19 18 17 16 16 16 16 15 14 12 12 11 11 11 12 12 12 12 12 11 11 10 9 9 9 9 9 9 9 9 9 9 9 9 9 8 8
25 24 24 24 24 23 23 23 23 22 21 20 20 20 20 20 21 21 21 21 21 21 21 21 21 21 21 20 20 20 19 18 17 17 16 15 14 14 14 12 10 10 10 10 10 10 10 10 10 10 10 10 10 9 9 9 9 9 9 9 9 9 9 8 8 9 8 7 8
25 24 24 24 24 23 23 23 23 22 21 21 20 19 19 20 20 20 21 21 21 21 21 21 21 21 21 20 19 17 15 13 13 13 12 12 11 11 11 9 8 8 8 9 9 9 9 9 9 9 9 9 9 8 8 8 8 9 9 9 8 8 8 8 8 8 7 6 6
24 24 24 24 24 23 23 23 23 23 22 21 20 20 20 20 20 20 20 21 21 21 21 21 21 20 19 17 15 12 10 10 10 9 9 9 9 8 8 7 6 6 6 7 7 8 8 8 8 8 8 8 8 8 8 8 8 8 8 8 8 8 9 9 8 6 5 4 4
Height
736 738 740 741 743 744 746 747 749 750 752 754 755 757 759 760 761 763 764 765 766 767 768 769 770 772 774 775 776 778 780 781 783 783 784 785 785 786 788 790 791 793 794 795 797 798 800 801 802 803 804 805 805 806 808 809 810 810 811 812 813 814 814 815 815 816 816 817 817
735 737 738 740 741 743 745 746 748 749 751 752 754 756 758 759 760 762 763 764 765 766 767 768 769 770 772 773 775 777 778 780 781 782 783 783 784 785 787 789 790 792 793 794 795 797 798 799 800 802 803 804 805 805 806 807 808 809 810 810 811 812 812 813 813 814 814 815 815
734 736 737 739 740 742 743 745 746 747 749 751 753 755 756 758 759 761 762 763 764 765 766 767 768 769 771 772 774 775 777 779 780 780 781 782 783 784 786 787 789 790 792 793 794 795 796 798 799 800 801 802 803 804 805 805 806 807 808 809 810 810 810 811 811 812 812 812 813
733 735 736 737 739 740 741 743 744 746 748 750 751 753 755 756 758 759 760 761 763 764 765 765 766 768 769 771 772 774 776 777 778 779 780 780 782 783 785 786 787 789 790 792 793 794 795 796 798 799 800 800 801 802 803 804 805 805 806 807 807 808 809 809 809 810 810 810 810
731 733 734 735 737 738 740 741 743 745 746 748 750 751 753 754 756 757 759 760 761 761 762 764 765 766 768 769 771 772 774 775 776 777 778 779 780 782 783 785 786 788 789 790 791 793 794 795 796 797 798 799 800 800 801 802 803 804 804 805 805 806 806 807 807 808 808 808 809
730 731 732 734 735 737 739 740 741 743 745 746 747 749 750 752 754 755 756 757 758 760 761 762 764 765 766 768 769 771 773 774 775 776 777 778 779 780 782 783 785 786 788 789 790 791 792 794 795 795 796 797 798 798 799 800 801 802 802 803 803 804 804 805 805 805 806 806 807
728 730 731 732 734 735 737 739 740 741 743 744 745 747 748 750 751 753 754 755 756 758 760 761 762 764 765 766 768 770 771 772 773 774 775 777 778 779 780 781 783 785 786 787 789 790 791 792 793 794 794 795 796 796 797 798 799 799 800 800 800 801 802 802 803 803 804 804 805
727 728 730 731 733 734 736 737 739 740 741 742 744 745 746 748 749 751 752 754 755 756 758 760 761 762 764 765 767 769 770 771 772 773 774 775 776 777 779 780 781 783 784 785 787 788 789 790 791 791 792 793 794 794 795 796 796 797 797 798 798 799 800 800 800 801 801 802 802
726 727 729 730 731 733 735 736 737 739 740 741 742 744 745 746 748 750 751 752 754 755 756 758 759 760 762 763 765 767 768 770 770 771 772 773 775 776 777 778 780 781 782 784 785 786 787 788 789 789 790 790 791 792 793 794 794 795 795 795 796 797 797 798 798 799 799 800 800
724 726 727 729 730 732 733 735 736 738 739 740 741 742 744 745 746 748 749 751 752 754 755 756 757 758 760 761 763 765 766 767 768 769 770 771 773 774 775 776 778 779 780 781 783 784 785 786 786 787 787 788 789 790 790 791 792 792 793 793 794 794 795 795 796 797 797 797 798
722 724 726 727 729 730 732 734 735 736 738 739 740 741 743 744 745 746 748 749 750 751 752 753 754 756 757 759 760 762 763 765 765 767 768 769 770 772 773 774 775 777 778 779 780 782 783 783 784 784 785 786 786 787 788 789 790 790 790 791 791 792 793 793 794 794 795 795 795
720 722 724 725 727 729 731 732 734 735 736 737 738 740 741 742 743 745 746 747 748 749 749 750 752 754 755 757 758 759 760 762 763 764 765 767 768 770 771 772 773 775 776 777 778 779 780 780 781 782 782 783 784 785 785 786 787 787 788 788 789 790 790 790 791 792 792 793 793
718 720 722 724 725 727 729 730 732 733 734 735 737 738 739 740 742 743 744 745 745 746 747 748 750 751 753 754 755 756 758 759 760 762 763 765 766 767 769 770 771 772 773 775 775 776 777 778 778 779 780 780 781 782 782 783 784 785 785 786 786 787 787 788 789 789 790 790 791
715 717 719 721 723 725 727 728 730 731 732 733 735 735 737 738 740 741 741 742 743 744 745 746 748 749 750 751 753 754 755 757 758 760 761 762 763 765 766 767 769 770 771 772 773 774 774 775 775 776 777 777 778 779 780 780 781 782 783 783 784 785 785 786 786 787 788 788 789
714 715 717 719 721 723 724 726 727 728 730 731 732 733 735 736 737 738 739 740 741 742 743 744 745 747 748 750 751 752 753 755 756 757 758 760 761 762 764 765 766 767 768 769 770 771 771 772 772 773 774 775 775 776 777 778 779 780 780 781 782 782 783 784 785 785 786 786 787
711 713 715 716 719 720 721 723 724 725 727 728 730 730 732 733 735 736 737 738 739 740 741 742 744 745 746 748 749 750 751 753 754 755 756 757 759 760 761 762 763 764 765 766 767 768 769 769 770 771 771 772 773 774 775 776 777 778 778 779 780 780 781 782 783 784 784 785 785
709 711 712 714 715 717 719 720 721 722 724 725 726 728 729 730 732 733 735 735 737 738 739 740 742 743 745 746 747 748 749 750 751 753 754 755 756 757 758 760 760 761 763 764 765 765 766 767 768 768 769 770 771 772 773 774 775 775 776 777 778 779 780 780 781 782 783 783 784
707 708 710 711 712 714 715 717 718 719 720 722 723 725 726 727 729 730 732 734 735 736 737 739 740 741 742 744 745 746 747 748 749 750 751 753 754 755 756 757 758 759 760 761 762 763 764 765 765 766 767 768 769 770 771 772 773 774 774 775 776 777 778 779 780 780 781 782 782
705 706 707 708 710 711 713 715 716 717 718 720 721 722 724 725 727 728 730 732 733 734 735 737 738 739 740 742 743 744 745 746 747 748 750 751 752 753 754 755 756 757 759 759 760 761 762 763 764 765 765 766 767 768 769 770 771 772 773 774 775 775 776 777 778 779 780 780 780
703 704 705 706 708 709 711 713 715 715 717 718 719 720 722 724 725 727 728 730 731 733 734 735 737 738 739 740 741 743 744 745 746 747 748 749 750 751 752 753 755 755 757 757 758 759 760 761 762 763 764 765 765 766 767 768 769 770 771 772 773 774 775 775 776 777 777 778 779
701 702 703 705 706 708 710 711 713 715 716 717 718 720 721 722 724 725 726 728 730 731 733 734 735 736 737 739 740 741 742 744 745 746 747 748 749 750 751 752 753 754 755 756 756 757 758 759 760 761 762 763 764 765 765 766 767 769 770 770 771 772 773 774 774 775 775 776 776
699 701 702 704 705 707 708 710 711 713 715 716 717 719 720 721 723 724 725 727 729 730 731 733 734 735 736 737 739 740 741 742 743 745 745 746 747 748 749 750 751 752 753 754 755 755 756 757 758 759 760 761 761 762 764 765 766 767 768 769 770 770 771 772 773 773 774 774 774
698 700 701 703 704 705 707 709 710 712 713 715 716 717 719 720 722 723 725 726 728 729 730 731 733 734 735 736 737 739 740 741 742 743 744 745 746 747 748 749 750 750 751 752 753 754 755 755 757 757 758 759 760 761 762 763 764 765 766 767 768 768 769 770 771 772 772 772 772
697 699 700 701 703 704 706 707 709 710 712 713 714 716 717 719 720 722 724 725 727 728 729 730 731 733 734 735 736 737 739 740 740 741 743 744 745 745 746 747 748 749 749 750 751 752 753 754 755 755 756 757 758 759 760 761 762 763 764 765 765 766 767 768 769 770 770 770 770
696 697 699 700 701 703 704 705 707 708 710 711 713 714 716 717 719 720 722 724 725 726 728 729 730 731 733 734 735 736 737 738 739 740 741 742 743 744 745 745 746 747 747 748 749 750 751 751 752 753 754 755 756 757 758 759 760 761 762 762 763 764 765 765 765 766 766 766 766
695 696 697 698 700 701 702 704 705 706 708 710 711 713 714 716 717 719 720 722 723 725 726 728 729 730 731 732 733 735 735 736 737 738 739 740 741 742 742 743 744 745 745 746 747 748 749 750 750 751 752 753 755 755 756 757 758 759 760 760 761 762 763 763 763 762 762 762 763
694 695 696 697 698 699 700 702 703 705 706 708 710 711 713 714 716 717 719 720 721 723 725 726 727 729 730 731 732 733 734 735 735 736 738 738 739 740 740 741 741 742 743 743 744 745 746 747 748 750 750 752 753 754 755 755 756 757 758 759 760 760 761 760 760 760 760 760 761
691 693 694 695 696 697 699 700 702 703 705 706 708 709 711 713 714 715 717 718 720 721 723 724 725 727 728 729 730 731 731 732 734 735 736 737 737 738 739 739 740 740 740 741 742 744 745 746 747 748 749 750 751 752 754 754 755 755 756 757 758 758 759 759 758 759 759 759 759
689 691 693 694 695 696 697 698 700 701 703 704 706 708 709 711 712 713 715 716 718 719 721 722 724 725 726 727 728 729 730 731 732 733 734 735 736 736 737 737 737 738 739 740 741 742 744 745 746 747 748 749 750 751 752 753 754 754 755 755 756 756 757 757 757 757 757 757 757
687 689 691 692 694 695 696 697 698 699 701 703 704 706 707 709 710 711 712 714 715 717 718 720 721 722 723 724 725 727 728 729 730 731 732 733 734 734 735 735 736 736 737 738 739 741 742 743 745 747 749 750 750 751 751 752 753 753 754 754 755 755 755 755 755 755 755 755 755
685 687 689 690 692 693 695 695 697 698 700 701 702 704 705 706 707 709 710 711 713 715 716 718 719 720 721 722 724 725 726 727 728 729 730 730 731 732 732 733 734 735 735 737 738 739 741 742 743 745 747 748 749 750 750 751 751 752 752 753 753 753 753 753 753 753 753 754 754
683 684 686 688 690 691 693 694 695 697 698 699 700 701 703 704 705 706 708 709 711 713 714 715 717 718 719 720 722 723 724 725 725 726 727 727 728 729 730 731 732 733 734 735 736 738 740 741 742 743 745 746 748 749 750 750 750 751 751 751 751 751 751 751 752 752 752 752 752
680 681 683 685 687 689 690 692 694 695 696 697 698 699 700 701 703 704 706 707 709 710 712 713 714 715 717 718 719 720 721 722 723 724 724 725 726 727 729 730 731 732 733 734 735 736 738 739 740 742 744 745 746 748 749 750 750 750 750 750 750 750 750 750 750 751 751 751 751
677 679 680 682 684 686 688 690 692 693 695 696 696 697 698 700 701 702 704 705 706 708 709 710 711 713 714 715 717 718 719 720 721 722 723 724 725 726 727 728 729 730 731 732 733 734 736 738 739 741 742 744 745 746 747 748 748 748 748 748 748 748 749 749 749 750 750 750 750
674 676 677 679 681 683 685 688 690 691 693 694 695 695 696 698 699 700 701 703 704 705 707 708 709 710 712 713 715 715 717 718 719 720 721 722 724 725 726 727 728 729 730 730 731 733 734 736 738 739 741 742 743 744 745 746 746 746 746 747 747 747 748 748 748 749 749 749 749
672 673 675 676 678 680 682 685 687 689 690 691 692 694 695 696 697 698 699 701 702 704 705 706 707 709 710 711 712 714 715 716 717 718 720 721 722 724 725 726 728 729 729 730 731 732 733 735 737 738 740 740 741 742 743 744 745 745 745 746 746 746 747 747 748 748 748 748 749
669 670 672 674 675 677 679 681 684 686 687 689 690 692 693 695 695 697 698 699 700 701 702 704 705 706 708 709 710 712 713 715 716 717 718 720 721 722 724 726 728 728 728 730 730 732 733 735 736 737 739 740 740 741 742 743 743 744 744 745 745 746 746 747 747 747 748 748 747
667 668 670 671 673 675 676 678 681 683 685 687 689 690 692 693 694 695 696 697 698 699 700 701 703 704 705 707 709 710 712 713 714 715 717 719 720 722 724 726 726 727 727 729 730 731 733 734 735 736 737 738 739 740 740 741 742 743 744 744 745 745 745 746 746 747 747 746 745
665 666 668 670 671 673 674 676 678 680 683 685 687 689 691 692 693 694 695 696 696 697 698 699 700 702 704 705 707 710 711 712 713 714 716 718 720 722 723 724 724 725 726 727 728 730 731 732 734 735 735 736 738 739 740 741 742 742 743 744 744 744 745 745 746 747 746 744 743
663 665 666 668 670 671 673 675 676 678 681 683 685 688 689 691 692 693 694 695 695 696 697 698 699 700 702 705 707 709 710 710 711 713 715 717 719 720 721 722 724 725 725 726 727 728 729 730 731 733 734 735 736 738 739 740 741 741 742 743 743 744 744 745 745 745 744 742 742
662 664 665 666 668 670 672 673 675 677 679 681 684 686 688 689 690 692 693 693 694 695 696 697 699 700 702 704 707 708 709 710 711 713 715 716 718 719 720 723 724 725 726 726 727 727 728 729 730 731 733 734 735 736 738 739 740 741 741 742 743 743 744 744 744 743 742 742 742
Wind_Speed
23 23 23 23 23 23 24 25 25 25 25 26 28 29 29 28 29 27 26 24 23 22 21 20 19 17 17 18 18 18 18 18 18 18 18 18 18 18 19 19 19 19 20 20 21 21 22 21 19 18 17 17 18 18 18 18 18 19 19 19 20 20 20 20 20 20 20 20 19
22 22 22 23 24 24 23 23 22 23 24 26 26 27 28 28 29 28 27 26 25 24 23 22 20 17 16 17 18 18 18 18 19 18 18 18 19 19 20 20 20 20 20 20 20 21 21 21 20 18 17 16 17 17 18 18 18 18 19 20 20 19 20 21 21 22 22 22 21
22 22 22 23 23 23 22 21 21 22 24 26 25 25 27 28 28 28 28 27 27 26 25 24 23 20 17 16 17 18 19 19 20 20 20 20 20 20 20 20 21 20 20 20 20 21 21 21 21 19 18 17 17 17 18 18 18 18 19 20 20 20 20 21 22 22 23 22 23
22 22 23 24 24 23 22 21 23 24 25 25 25 25 26 27 28 28 27 27 27 27 27 26 25 23 21 18 17 18 19 20 21 21 21 21 21 21 21 21 21 21 21 20 21 21 21 21 21 20 19 19 18 18 18 18 19 19 20 20 20 20 20 21 21 22 22 22 22
23 24 24 24 25 24 23 23 24 25 25 26 26 26 27 27 27 27 26 26 27 27 27 27 26 25 24 22 19 18 19 21 22 22 23 23 23 23 23 22 22 22 22 22 22 22 21 21 21 20 20 20 19 19 19 19 19 20 20 20 20 21 21 21 21 21 21 21 21
23 23 24 24 25 25 24 23 24 24 25 25 26 26 26 27 27 27 26 26 26 26 27 26 26 25 25 25 22 20 20 21 22 23 23 23 23 24 24 24 23 23 23 23 23 23 23 22 21 21 21 20 21 21 20 20 20 20 20 20 21 21 21 21 21 21 21 21 21
23 23 23 24 25 25 24 23 23 23 24 24 25 26 26 27 27 27 26 26 25 25 25 25 25 25 25 25 25 23 22 22 23 23 24 24 25 25 25 25 25 24 24 24 24 24 23 24 22 22 21 21 21 21 22 21 21 21 21 21 21 21 21 22 22 22 22 22 22
23 23 23 23 24 25 24 23 22 22 23 23 25 26 26 26 26 26 26 25 24 24 24 25 25 26 26 26 27 26 24 24 24 25 25 26 25 25 25 25 26 26 26 26 25 25 24 24 23 23 23 22 21 21 22 23 22 22 22 22 22 22 21 22 22 22 22 23 23
23 23 23 24 24 24 24 23 22 22 22 23 24 25 26 26 26 26 25 24 24 24 25 25 26 27 27 28 28 27 26 26 26 26 26 26 26 26 26 26 27 27 27 27 26 26 25 25 24 24 24 23 22 22 23 23 23 23 23 23 23 23 22 22 23 23 23 23 24
24 24 25 25 25 25 24 23 23 23 23 23 24 25 25 26 26 26 25 25 25 25 26 26 27 28 29 29 29 28 28 27 27 27 27 27 27 27 27 27 27 28 28 28 27 27 26 25 24 24 24 24 23 23 24 24 24 25 25 24 23 23 24 23 24 24 24 24 24
25 25 26 26 26 26 25 24 23 23 23 23 24 24 25 26 26 27 27 26 26 27 27 27 28 28 29 29 29 28 28 28 28 28 28 28 28 28 28 28 28 28 28 28 28 27 27 26 25 25 26 25 25 24 25 25 25 26 26 25 24 24 25 25 25 25 24 24 24
25 26 26 26 27 27 26 25 24 24 24 24 24 25 26 27 28 28 28 28 28 28 28 27 27 28 28 28 28 28 28 28 28 28 28 28 29 29 29 29 29 29 29 29 28 28 27 27 27 27 27 27 26 25 25 26 26 26 27 27 26 26 26 26 26 25 25 24 24
24 25 26 26 27 28 27 27 26 25 25 25 26 26 27 28 29 29 30 29 29 28 27 27 27 27 27 27 27 27 27 27 27 27 28 28 29 29 30 30 30 30 30 30 29 29 28 28 28 28 28 28 27 26 26 26 27 27 27 27 27 27 27 27 26 26 25 25 24
24 24 25 26 27 28 29 29 27 26 26 27 27 28 28 29 29 30 30 30 29 28 26 26 26 26 26 26 26 26 26 26 27 27 27 28 28 29 29 30 30 30 30 30 30 30 29 29 29 28 28 29 28 28 27 26 27 27 27 27 28 27 27 27 26 26 25 25 25
25 25 25 26 27 28 29 30 28 27 27 28 29 29 29 29 30 31 31 30 29 27 26 25 25 25 25 25 25 25 25 25 26 26 26 27 27 28 29 29 30 30 30 30 30 30 30 30 30 29 29 29 29 28 28 27 27 26 27 27 27 27 26 26 25 25 25 25 25
26 26 26 27 28 28 29 29 28 28 28 29 30 30 30 30 30 31 30 30 28 27 26 25 25 25 25 25 25 25 24 25 25 26 26 26 27 27 28 28 29 29 30 30 30 30 31 31 30 30 29 29 29 28 28 27 26 26 26 26 25 25 25 24 24 24 24 23 24
27 27 27 28 29 29 29 29 28 28 29 30 30 30 30 29 30 30 30 30 28 27 27 26 26 25 25 24 24 24 24 24 24 25 25 26 26 27 27 28 28 28 29 29 29 30 30 30 30 30 29 29 28 28 27 26 26 25 24 24 24 23 23 22 22 22 21 22 22
28 28 28 29 29 29 29 29 28 28 29 29 30 30 29 29 29 30 30 30 30 29 28 28 27 26 25 24 24 23 23 23 23 24 24 25 25 26 26 27 27 27 28 28 28 29 29 30 29 29 29 28 27 26 25 25 24 23 23 22 22 21 21 21 20 20 20 21 21
28 28 29 29 29 30 30 30 29 29 28 29 29 29 29 29 29 29 30 31 31 30 29 29 28 26 25 24 23 23 23 23 23 23 24 24 24 25 25 26 26 26 26 27 27 28 28 28 28 28 27 26 25 25 24 23 22 21 20 20 20 20 20 20 21 21 21 22 23
28 28 29 29 29 29 30 30 30 29 28 28 28 29 29 29 29 30 30 31 31 31 30 29 28 27 25 24 23 23 22 22 22 23 23 23 24 24 24 25 25 25 25 25 26 26 26 27 27 26 26 25 24 23 22 21 20 20 19 19 19 19 20 21 22 23 23 24 25
28 28 28 28 28 29 29 30 29 29 28 28 28 29 29 30 30 30 30 30 31 31 30 29 28 27 26 25 24 23 23 22 22 22 22 23 23 23 24 24 24 24 24 25 25 25 25 26 26 25 25 24 23 22 22 21 20 20 20 20 20 20 21 22 23 24 25 26 27
28 28 27 28 28 28 28 29 29 29 28 28 28 28 29 29 30 30 29 29 29 29 30 29 29 28 26 25 24 24 23 22 21 22 22 22 22 23 23 23 23 24 24 25 25 25 25 25 25 25 24 24 24 23 23 22 22 22 22 22 22 22 23 24 24 25 27 28 30
27 27 27 27 27 28 28 28 29 29 28 28 28 28 28 29 29 29 29 28 28 28 28 28 28 27 26 25 24 24 23 22 22 22 22 22 22 23 23 23 24 24 25 25 25 25 25 25 25 25 24 24 24 24 24 25 25 24 24 24 24 24 24 25 26 27 29 30 32
27 27 26 26 27 28 28 28 28 29 29 29 28 28 28 28 28 28 28 28 27 27 27 26 26 26 26 25 24 24 23 23 23 22 22 23 23 23 23 24 24 24 25 25 25 25 25 24 24 23 23 23 24 25 25 25 25 24 24 24 24 24 25 26 27 28 30 33 34
27 27 26 26 27 28 28 28 29 29 29 29 29 28 28 28 28 28 28 28 28 27 26 25 24 23 24 24 25 25 24 24 24 24 24 24 24 24 24 24 24 24 25 25 25 25 25 24 24 24 24 24 25 25 26 26 25 25 25 25 25 25 25 27 28 31 34 36 36
27 27 27 27 27 28 28 29 29 29 29 29 29 28 28 28 28 28 28 28 28 27 26 25 23 22 22 23 23 24 25 25 25 25 25 24 24 24 24 24 25 25 25 26 26 26 26 26 27 27 27 26 26 26 26 26 27 27 26 26 27 27 28 30 32 34 35 35 34
27 27 27 27 27 28 28 29 29 29 29 29 29 29 28 28 28 27 28 28 27 27 26 25 23 22 21 21 22 23 24 25 26 26 26 26 25 24 24 23 24 25 27 28 29 29 29 29 29 29 29 28 28 27 27 28 28 27 27 27 29 30 31 32 32 32 31 30 30
27 27 27 27 27 28 28 29 29 29 29 29 29 29 28 28 28 28 28 27 27 27 26 25 24 23 22 22 22 24 25 26 27 27 27 27 26 26 25 25 25 26 28 29 30 31 31 30 31 31 31 30 29 28 28 28 28 27 27 28 30 31 31 31 31 29 28 27 28
28 28 28 27 27 27 28 28 29 29 29 29 29 29 28 28 28 28 28 28 27 27 26 25 24 23 23 23 23 24 25 26 27 28 28 28 27 27 27 27 27 28 28 30 30 30 30 31 31 31 31 31 29 28 27 26 25 25 26 26 28 29 30 30 30 29 28 28 28
27 27 27 27 27 27 28 28 28 29 29 29 29 29 29 28 29 29 29 28 28 28 27 25 24 23 23 23 23 23 24 25 26 27 28 28 28 27 27 28 28 28 30 30 30 30 31 31 31 31 31 31 30 28 25 23 23 23 23 24 26 28 29 29 29 29 29 28 27
27 27 27 27 28 28 28 28 28 28 28 28 28 28 29 29 29 29 29 29 28 28 27 25 24 24 24 24 24 23 23 24 24 25 26 27 28 28 29 29 29 29 30 31 31 31 32 32 31 32 32 32 31 28 25 23 22 23 25 26 27 27 28 28 28 29 28 27 27
28 28 28 28 29 29 29 28 28 27 27 27 28 28 28 29 29 29 29 29 28 28 27 26 25 25 25 24 24 24 24 24 24 24 25 26 27 28 28 28 28 28 29 30 31 32 33 33 33 33 33 33 31 29 26 25 25 26 27 27 28 28 28 27 27 27 27 26 26
28 28 28 28 29 29 29 29 28 28 27 27 27 28 28 28 28 28 28 28 28 27 27 27 26 26 26 26 26 25 25 25 25 24 24 24 25 25 26 26 26 26 27 29 31 33 34 34 34 34 33 32 31 29 29 28 28 27 28 28 28 28 27 26 26 25 25 24 24
29 29 29 29 29 29 29 29 29 29 28 28 28 28 28 28 27 27 27 27 27 27 27 27 27 27 27 27 27 26 26 25 25 24 24 23 23 23 23 23 23 24 26 28 30 32 33 33 34 34 33 33 32 32 32 32 30 29 28 27 27 26 25 25 24 24 23 22 22
29 29 29 28 28 28 29 29 29 29 29 29 28 28 28 27 27 27 26 26 26 26 26 26 26 26 26 26 27 26 26 25 25 24 23 22 21 21 21 21 20 22 25 27 29 30 31 32 33 33 34 34 35 34 34 33 31 30 28 26 25 24 23 22 22 21 21 20 20
28 28 28 28 28 27 28 28 29 29 29 29 29 28 28 27 26 26 25 25 25 25 25 25 25 25 25 25 25 25 25 24 24 22 21 20 20 19 19 19 18 19 21 24 26 28 29 30 32 33 34 35 35 34 32 31 30 29 27 25 23 22 21 20 19 18 17 17 17
27 27 27 27 27 26 26 27 28 28 29 29 28 28 27 26 25 25 24 24 24 24 24 24 24 24 24 24 23 23 23 23 23 22 20 20 19 19 18 17 15 14 16 18 20 22 25 27 29 31 32 32 32 31 30 28 27 25 23 22 21 20 19 17 15 14 13 12 13
25 26 26 26 25 25 25 25 26 27 27 27 27 26 25 25 24 24 24 23 23 23 23 23 23 23 23 22 22 22 22 22 22 21 19 18 17 16 15 13 10 9 10 12 13 16 18 21 24 26 28 29 29 28 27 24 22 20 18 17 16 15 14 12 12 11 10 10 12
24 24 24 24 24 24 24 23 24 24 25 25 24 23 23 24 23 23 23 22 22 22 22 22 22 22 22 22 20 17 13 10 10 11 12 11 10 11 11 10 9 9 10 12 13 14 16 18 20 23 25 27 27 25 21 18 16 15 13 13 12 11 11 11 10 9 8 8 10
21 22 22 22 22 22 22 22 22 22 22 23 22 22 22 23 23 22 22 21 21 21 21 21 21 20 19 17 13 7 10 13 13 13 14 14 13 14 14 13 10 9 9 12 14 16 18 20 21 24 26 27 25 21 17 13 12 11 10 10 9 9 9 9 7 4 3 3 4
18 18 19 19 20 20 21 21 20 20 20 20 21 21 21 22 21 21 20 20 20 20 20 19 17 13 9 9 13 17 21 23 22 22 22 21 19 18 16 14 11 9 7 8 11 15 17 20 22 24 26 26 24 20 15 12 10 10 9 9 8 8 7 5 2 3 3 2 2
Wind_Direction
189 189 188 188 188 188 188 189 189 189 190 191 193 195 196 198 201 203 206 207 208 206 202 197 192 190 190 191 192 193 195 198 199 198 196 193 192 193 194 197 199 201 201 201 202 203 203 203 203 204 205 207 209 210 211 212 213 214 215 216 220 221 222 224 226 227 229 231 237
187 185 184 185 186 187 188 187 187 187 189 191 193 195 197 199 201 204 207 210 211 210 208 204 199 195 191 190 191 193 195 198 200 199 197 196 195 196 197 199 201 202 202 202 202 203 204 203 203 205 207 208 209 211 212 215 214 214 216 217 220 221 222 225 227 229 231 234 240
185 183 183 185 185 185 185 185 185 187 190 192 194 195 197 199 201 204 207 210 211 211 209 207 205 201 195 190 191 194 198 200 201 200 200 199 199 199 200 202 203 204 204 204 203 204 204 205 205 207 209 211 211 211 214 216 216 216 217 219 221 222 224 227 229 232 235 238 241
185 184 185 186 185 184 184 185 188 189 191 193 194 196 197 199 201 203 206 208 209 209 208 207 207 205 203 197 195 197 201 203 203 203 202 202 202 203 204 205 205 206 206 206 206 206 205 205 207 209 211 213 214 215 216 216 217 218 219 221 222 224 226 229 231 233 236 239 240
187 188 188 187 186 185 187 189 190 191 192 193 194 196 198 200 201 202 204 205 206 206 206 206 207 207 207 206 202 203 205 207 206 206 206 206 207 207 207 207 208 209 210 209 208 208 207 206 208 211 214 216 217 218 218 218 218 219 220 222 224 226 228 230 232 234 236 238 238
187 188 188 188 186 187 189 191 191 191 191 192 193 195 197 198 200 201 201 202 203 203 203 204 206 208 208 207 208 210 212 212 210 209 209 209 209 209 209 210 211 211 212 212 211 211 210 209 211 214 217 218 221 222 221 220 219 220 221 223 225 227 228 230 232 233 234 235 235
187 187 187 187 186 187 189 191 191 190 190 191 193 194 195 196 197 198 199 199 199 200 201 203 206 207 207 206 208 212 217 216 213 211 211 211 211 210 210 211 212 212 213 213 213 212 211 212 214 216 218 219 221 223 224 222 220 220 222 224 226 227 228 230 231 232 232 233 233
188 186 186 186 186 187 188 189 188 188 188 190 191 192 193 194 195 195 196 196 197 198 200 202 205 206 205 203 206 211 216 216 215 213 212 212 211 211 211 211 212 213 214 214 214 213 212 213 215 218 220 221 222 223 224 224 222 222 223 225 227 228 229 230 232 232 232 233 233
188 188 187 187 187 187 188 189 188 187 188 189 190 191 191 192 193 193 194 195 197 199 200 202 204 204 203 202 205 209 212 213 212 211 211 211 211 211 211 212 213 214 215 215 215 214 214 214 215 217 220 222 223 224 225 225 225 225 226 227 228 229 230 231 232 233 233 233 233
187 188 188 189 190 190 190 190 189 188 188 189 190 190 190 191 193 193 195 197 199 200 201 202 202 202 202 203 205 207 208 208 208 209 209 209 210 210 211 212 213 214 215 215 215 215 215 215 216 218 220 221 223 225 226 226 226 227 228 229 229 231 232 232 233 234 234 235 234
187 187 188 190 192 192 192 191 190 190 190 191 191 191 191 193 194 195 197 198 199 200 200 200 200 200 201 203 205 206 206 205 206 207 208 209 210 211 212 212 213 214 214 215 216 216 217 217 218 220 221 223 223 225 227 228 228 229 230 231 232 233 234 235 235 235 235 236 236
188 186 186 189 192 193 193 193 193 192 192 193 193 193 194 195 196 196 197 197 198 198 198 198 198 199 201 203 204 204 203 204 204 206 208 209 211 212 212 213 214 214 215 215 216 216 217 218 220 221 222 223 224 226 227 228 229 230 232 233 234 235 236 236 236 236 236 237 237
193 188 186 186 190 192 193 194 194 194 194 194 195 195 195 195 195 195 195 195 196 196 196 197 197 198 199 200 201 201 202 202 203 205 207 209 210 211 212 213 214 215 215 216 216 217 218 219 221 222 223 224 226 227 227 228 229 231 233 234 235 236 237 237 238 238 238 239 239
198 192 187 186 188 191 193 194 195 195 194 195 196 196 194 194 194 194 194 195 195 195 196 196 197 198 198 199 199 200 201 202 203 205 206 208 209 210 212 213 214 214 215 216 217 218 219 221 222 223 224 226 227 227 227 227 229 231 233 234 235 236 237 238 239 240 241 241 242
201 196 191 188 189 191 193 194 194 194 194 196 197 196 194 193 193 194 195 196 196 196 197 197 197 198 198 199 200 201 202 203 204 205 206 208 209 210 211 212 213 214 215 216 217 218 220 222 223 224 225 227 228 228 228 228 229 231 233 235 236 237 239 240 241 242 242 243 244
201 199 195 192 191 192 193 194 195 195 195 196 196 195 194 193 193 195 196 197 198 198 199 199 199 199 200 201 202 203 203 204 205 206 207 208 209 210 211 213 214 215 216 217 218 219 221 222 224 225 226 228 229 229 230 230 230 231 233 235 236 238 239 241 242 243 244 245 246
200 199 198 196 194 193 193 194 196 197 197 197 196 195 195 194 194 196 197 199 199 200 201 201 202 202 202 203 204 205 205 206 207 208 209 209 210 211 213 214 215 216 217 218 219 220 222 223 224 226 227 229 230 231 231 231 231 231 232 233 235 237 239 241 243 244 245 246 247
198 199 199 197 196 195 195 196 197 198 198 197 196 196 195 195 196 196 198 200 201 202 203 204 204 204 205 205 205 205 207 208 209 209 210 211 212 213 214 216 217 218 218 219 220 222 223 224 225 226 227 229 230 231 232 231 231 231 231 231 233 235 237 239 241 243 244 245 246
198 199 199 199 197 196 196 197 198 199 199 198 197 196 197 197 197 198 199 201 203 204 205 206 207 207 207 207 206 206 208 209 211 212 213 213 214 215 217 218 219 219 220 221 222 223 224 225 225 226 227 228 229 229 229 229 229 229 229 229 231 232 234 236 237 239 240 241 243
200 200 200 200 199 198 197 198 199 200 200 199 198 198 198 199 199 199 200 201 203 205 207 208 209 210 210 209 208 208 209 211 213 214 216 216 217 218 219 220 220 221 222 223 224 225 226 226 226 226 225 225 225 224 224 224 225 225 226 228 229 231 233 234 235 236 237 238 240
202 202 201 201 200 200 199 199 199 200 201 200 200 200 200 200 201 201 202 202 204 206 208 210 211 212 212 212 211 211 211 213 215 217 219 220 221 221 222 222 223 224 224 225 226 226 226 227 226 225 224 221 220 218 218 219 220 222 224 226 229 231 233 235 236 237 238 239 240
204 203 203 202 202 202 201 201 201 201 202 202 202 202 203 203 204 204 205 205 205 206 209 211 213 214 214 214 214 214 214 215 217 219 221 223 224 225 225 225 226 226 226 227 227 227 226 226 225 224 221 218 215 214 214 216 218 221 224 226 229 232 235 237 239 240 242 243 244
205 204 204 204 204 203 203 202 202 203 203 204 204 205 205 205 206 207 207 207 207 209 210 213 214 216 216 216 216 216 216 217 218 220 222 224 226 227 227 227 227 228 228 228 228 227 226 224 223 221 217 214 213 213 215 217 219 221 223 226 230 233 236 239 242 244 246 247 247
206 205 205 204 204 204 204 204 204 205 205 206 206 206 206 207 207 208 208 209 210 211 212 213 215 217 217 217 217 217 217 218 219 220 222 224 225 226 227 228 228 229 229 229 228 226 224 221 218 215 213 212 212 214 215 217 218 219 222 225 228 230 234 237 242 246 250 251 249
206 206 205 205 205 205 205 205 205 206 206 207 207 207 208 208 208 208 209 211 212 213 213 214 215 216 217 217 217 217 217 218 219 221 222 223 224 225 226 227 228 229 229 228 227 225 223 218 214 212 211 211 212 214 215 216 217 219 222 224 227 231 235 241 249 255 257 254 248
206 207 207 207 206 206 206 206 207 207 208 208 208 209 209 209 209 210 211 212 213 214 215 215 215 214 214 215 215 216 217 218 220 221 222 222 223 224 224 225 227 227 227 226 225 223 221 218 215 213 212 212 212 212 213 215 217 219 222 226 231 237 243 250 255 257 255 249 244
205 207 208 208 208 207 207 207 208 208 209 209 209 210 210 210 211 212 212 213 214 215 215 215 215 214 213 212 213 214 216 217 219 220 222 223 224 224 224 223 224 224 224 224 223 221 220 218 217 216 214 213 212 212 212 213 215 219 225 233 240 245 248 251 253 251 247 244 242
205 206 207 208 209 209 209 209 209 209 210 210 210 211 211 212 212 213 214 214 215 215 215 215 214 213 212 212 213 214 216 217 219 220 222 223 225 225 224 223 222 222 222 222 222 221 220 219 219 218 217 215 214 213 214 215 219 225 233 240 245 247 248 249 249 247 245 243 244
204 205 206 208 210 211 211 210 210 210 211 211 212 212 212 213 214 214 215 215 215 215 214 214 214 213 212 213 214 215 216 218 220 221 222 223 225 225 225 224 222 222 221 221 221 220 220 220 220 220 219 218 216 215 217 220 226 233 239 241 243 244 246 246 246 246 245 245 246
205 204 204 206 209 211 212 212 212 212 212 212 213 213 214 215 215 216 216 216 216 216 215 215 213 212 211 213 214 215 216 218 220 221 222 223 224 224 224 224 223 223 222 221 221 220 219 219 220 222 223 222 220 219 220 224 230 235 238 240 242 243 244 244 245 245 245 246 247
206 204 203 204 207 210 212 213 213 213 213 213 214 214 215 216 217 218 218 218 218 218 217 215 213 212 212 213 215 216 217 219 219 220 220 222 222 223 223 223 223 224 224 224 222 220 219 219 220 222 223 223 222 222 225 229 233 236 239 241 241 242 242 243 244 245 246 247 248
208 207 205 204 206 208 211 213 214 214 215 215 215 216 217 218 219 219 220 221 221 220 219 216 214 214 214 215 216 218 219 220 221 221 220 220 221 222 222 223 223 224 225 225 224 222 221 221 221 222 223 223 224 227 231 235 238 240 242 243 243 242 242 243 244 246 247 248 249
210 210 208 207 207 208 209 211 213 215 216 217 217 218 218 219 220 221 221 222 222 222 221 218 217 216 216 218 219 220 221 223 223 222 221 219 219 220 221 222 222 223 224 226 225 224 223 222 222 223 223 224 227 232 238 241 241 242 242 242 243 243 244 244 246 247 249 250 251
211 211 211 210 209 209 209 209 211 213 216 218 219 220 220 221 221 221 222 222 222 222 222 221 220 219 219 220 221 222 223 224 224 224 222 220 218 218 219 220 221 222 223 225 226 225 225 224 224 224 225 228 233 238 241 242 241 240 240 241 242 243 244 246 247 249 251 252 253
212 212 213 212 211 210 209 209 209 211 214 217 219 221 222 222 223 223 222 222 222 221 222 222 221 221 221 221 221 222 223 223 224 224 222 220 218 217 218 218 220 222 223 225 226 226 226 226 226 227 230 235 239 241 241 239 238 237 238 239 241 244 246 247 249 251 253 254 256
212 213 213 214 213 211 209 208 207 209 211 214 217 219 221 223 223 224 223 222 221 220 220 220 221 221 221 221 221 222 223 223 223 222 220 217 216 216 216 218 222 226 227 228 228 228 228 229 231 233 237 240 241 240 237 235 234 235 237 240 243 246 249 250 252 253 256 259 263
212 213 213 214 214 213 211 208 206 206 208 211 214 216 219 221 223 224 224 223 222 221 220 219 219 220 220 221 221 222 222 223 221 219 216 212 212 213 216 218 222 227 229 230 232 232 233 234 238 241 242 241 238 235 232 230 231 234 238 243 247 251 253 254 255 258 265 272 271
213 213 213 214 214 215 213 210 206 205 206 208 210 212 216 219 222 224 225 224 224 223 222 221 220 220 220 220 221 222 224 225 223 218 212 204 205 209 211 210 205 203 207 213 222 228 233 237 242 243 241 236 230 227 225 227 231 236 242 248 251 254 256 258 263 270 278 280 271
214 214 213 213 214 215 215 213 208 205 203 204 205 208 213 217 220 223 224 225 226 226 226 224 222 221 221 221 220 219 218 214 209 199 188 181 179 180 177 166 157 166 182 190 199 209 218 225 230 232 230 226 222 220 221 226 233 241 248 252 256 261 266 271 277 278 273 266 262
215 215 214 214 213 214 214 214 211 207 203 201 200 204 209 214 218 221 223 225 226 228 228 228 227 227 225 217 202 157 101 99 105 115 121 121 123 130 134 129 127 142 168 183 192 199 207 213 217 219 219 218 216 217 221 229 239 246 252 256 260 267 275 280 277 262 236 244 260
215 215 215 214 212 211 212 214 213 209 204 200 198 200 205 209 214 217 220 222 224 225 228 232 235 232 208 158 128 107 96 96 99 104 109 110 112 115 114 107 103 106 132 170 189 200 207 212 215 217 218 218 218 220 224 233 242 250 254 258 264 272 277 276 229 153 124 81 39